Weather History for George, South Africa

Change the Weather History Date:

Wednesday, October 9, 2013

  Actual Average Record
Temperature  
Mean Temperature 60 °F -  
Max Temperature 69 °F 68 °F 95 °F (2002)
Min Temperature 51 °F 51 °F 42 °F (1997)
Degree Days  
Heating Degree Days 5    
Growing Degree Days 10 (Base 50)    
Moisture  
Dew Point 53 °F    
Average Humidity 75    
Maximum Humidity 94    
Minimum Humidity 51    
Precipitation  
Precipitation 0.00 in - - ()
Sea Level Pressure  
Sea Level Pressure 30.05 in    
Wind  
Wind Speed 5 mph ()    
Max Wind Speed 12 mph    
Max Gust Speed -    
Visibility 8.1 miles    
Events      
Averages and records for this station are not official NWS values.
T = Trace of Precipitation, MM = Missing Value Source: Averaged Metar Reports

Daily Weather History Graph

Daily Weather History Graph

Search for Another Location

Airport:

Trip Planner

Search our weather history database for the weather conditions in past years. The results will help you decide how hot, cold, wet, or windy it might be!

Date:

Astronomy

Oct. 09, 2013 Rise Set
Actual Time 5:56 AM SAST 6:39 PM SAST
Civil Twilight 5:31 AM SAST 7:04 PM SAST
Nautical Twilight 5:01 AM SAST 7:34 PM SAST
Astronomical Twilight 4:31 AM SAST 8:05 PM SAST
Moon 9:03 AM SAST (10/9) 11:25 PM SAST (10/9)
Length of Visible Light 13h 33m
Length of Day
12h 42m
Waxing Crescent, 22% of the Moon is Illuminated
Oct 9
Waxing Crescent
Oct 12
First Quarter
Oct 19
Full
Oct 27
Last Quarter
Nov 3
New

Hourly Weather History & Observations

Time (SAST) Temp. Dew Point Humidity Pressure Visibility Wind Dir Wind Speed Gust Speed Precip Events Conditions
12:00 AM 55.4 °F 50.0 °F 82% 30.04 in - NNW 4.6 mph - N/A   Clear
1:00 AM 53.6 °F 48.2 °F 82% 30.04 in - NW 3.5 mph - N/A   Clear
2:00 AM 54 °F 47 °F 72% 30.04 in 19 mi WNW 5.8 mph - -  
2:00 AM 53.6 °F 48.2 °F 82% 30.01 in - WNW 3.5 mph - N/A   Clear
3:00 AM 53.6 °F 46.4 °F 77% 30.01 in - NW 5.8 mph - N/A   Clear
4:00 AM 53.6 °F 46.4 °F 77% 30.01 in - NNW 4.6 mph - N/A   Clear
5:00 AM 53.6 °F 46.4 °F 77% 30.04 in 6.2 mi WNW 3.5 mph - N/A   Scattered Clouds
6:00 AM 53.6 °F 46.4 °F 77% 30.04 in 6.2 mi WNW 4.6 mph - N/A   Scattered Clouds
7:00 AM 57.2 °F 51.8 °F 82% 30.06 in 6.2 mi NNW 6.9 mph - N/A   Scattered Clouds
8:00 AM 59 °F 54 °F 78% 30.12 in 12 mi West 9.2 mph - -   Mostly Cloudy
8:00 AM 59.0 °F 53.6 °F 82% 30.09 in 6.2 mi West 9.2 mph - N/A   Mostly Cloudy
9:00 AM 60.8 °F 55.4 °F 82% 30.09 in 6.2 mi NW 11.5 mph - N/A   Mostly Cloudy
10:00 AM 64.4 °F 55.4 °F 73% 30.09 in 6.2 mi Variable 3.5 mph - N/A   Partly Cloudy
11:00 AM 69 °F 55 °F 51% 30.08 in 12 mi SE 3.5 mph - -  
11:00 AM 69.8 °F 55.4 °F 60% 30.06 in - Variable 3.5 mph - N/A   Clear
12:00 PM 68.0 °F 55.4 °F 64% 30.04 in - South 9.2 mph - N/A   Clear
1:00 PM 68.0 °F 57.2 °F 68% 30.04 in 6.2 mi South 9.2 mph - N/A   Partly Cloudy
2:00 PM 66 °F 56 °F 62% 30.07 in 12 mi South 10.4 mph - -   Scattered Clouds
2:00 PM 66.2 °F 55.4 °F 68% 30.06 in 6.2 mi South 10.4 mph - N/A   Partly Cloudy
3:00 PM 66.2 °F 55.4 °F 68% 30.04 in 6.2 mi SSE 9.2 mph - N/A   Mostly Cloudy
4:00 PM 66.2 °F 53.6 °F 64% 30.04 in 6.2 mi ESE 5.8 mph - N/A   Mostly Cloudy
5:00 PM 68 °F 55 °F 53% 30.03 in 12 mi East 5.8 mph - -   Scattered Clouds
5:00 PM 68.0 °F 55.4 °F 64% 30.01 in 6.2 mi East 5.8 mph - N/A   Partly Cloudy
6:00 PM 64.4 °F 57.2 °F 77% 30.04 in 6.2 mi SE 9.2 mph - N/A   Partly Cloudy
7:00 PM 60.8 °F 57.2 °F 88% 30.04 in 6.2 mi East 4.6 mph - N/A   Partly Cloudy
8:00 PM 59 °F 56 °F 87% 30.05 in 12 mi ENE 6.9 mph - -   Scattered Clouds
8:00 PM 59.0 °F 55.4 °F 88% 30.04 in 6.2 mi ENE 6.9 mph - N/A   Partly Cloudy
9:00 PM 59.0 °F 57.2 °F 94% 30.04 in - ENE 6.9 mph - N/A   Clear
10:00 PM 57.2 °F 55.4 °F 94% 30.01 in - Variable 2.3 mph - N/A   Clear
11:00 PM 55.4 °F 51.8 °F 88% 30.01 in 5.0 mi WNW 3.5 mph - N/A   Unknown